Regional Weather Roundup
Issued by NWS Grand Forks, ND

Home | Current Version | Previous Version | Graphics & Text | Print | Product List | Glossary On
Versions: 1 2 3 4 5 6 7 8 9 10 11 12 13 14 15 16 17 18 19 20 21 22 23 24 25 26 27 28 29 30 31 32 33 34 35 36 37 38 39 40 41 42 43 44 45 46 47 48 49 50
000
ASUS43 KFGF 242110
RWRFGF
PRAIRIE TO PINES  WEATHER ROUNDUP
NATIONAL WEATHER SERVICE EASTERN NORTH DAKOTA/GRAND FORKS ND
300 PM CST WED DEC 24 2014

 **SATELLITE DATA USED TO AUGMENT SKY COVER AT AUTOMATED STATIONS**
 *****  WEATHER ACROSS EASTERN NORTH DAKOTA  *****

CITY           SKY/WX    TMP DP  RH WIND       PRES   REMARKS
GRAND FORKS    CLOUDY    27  24  89 S15       29.56F WCI  15
GRAND FRKS AFB CLOUDY    27  27 100 S13       29.55F WCI  17
GRAND FRKS NWS   N/A     27 N/A N/A S20         N/A  WCI  13
DEVILS LAKE    CLOUDY    28  25  86 S14       29.45F WCI  17
FARGO          CLOUDY    27  24  89 S12       29.61F WCI  17
WAHPETON ARPT  CLOUDY    27  25  93 SW6       29.64F WCI  20
$$

 ***** WEATHER ACROSS CENTRAL AND WESTERN NORTH DAKOTA  *****

CITY           SKY/WX    TMP DP  RH WIND       PRES   REMARKS
BISMARCK       CLOUDY    32  23  69 SW9       29.50F WCI  24
MINOT          PTSUNNY   35  28  75 SW8       29.42F
JAMESTOWN      CLOUDY    30  26  85 S12       29.52F WCI  20
MINOT AFB      PTSUNNY   34  34  99 W12       29.42S
GARRISON         N/A     34  29  82 SW10      29.44F
WILLISTON      CLOUDY    37  29  72 W10       29.46F
DICKINSON      CLOUDY    37  30  75 W14       29.44F
HETTINGER      CLOUDY    35  27  72 SW8       29.49F
$$

 *****  OTHER AIRPORT OBSERVATIONS IN OUR AREA  *****

CITY           SKY/WX    TMP DP  RH WIND       PRES   REMARKS
WALHALLA         N/A     27  27 100 SE10      29.51F WCI  17
GRAFTON AIRPOR NOT AVBL
VALLEY CITY AR CLOUDY    27  27 100 S16       29.54F FOG     WCI  14
CANDO          CLOUDY    30  27  86 SW14      29.44F WCI  20
CAVALIER APRT  CLOUDY    27  25  93 S13       29.53F FOG     WCI  16
GWINNER        CLOUDY    30  30 100 S3        29.61F
ROLLA          CLOUDY    28  28 100 SW9       29.43F WCI  20
 ***** THE ABOVE OBSERVATIONS ARE NON NWS ARE NOT QUALITY
       CONTROLLED AND MAY MIS-REPORT RAIN FOR SNOW...
$$

  *****  WEATHER ACROSS NORTHERN MINNESOTA  *****

CITY           SKY/WX    TMP DP  RH WIND       PRES   REMARKS
FLAG ISLAND    CLOUDY    30  28  93 S5        29.56F
WARROAD        CLOUDY    30  27  86 S6        29.57F WCI  24
ROSEAU         CLOUDY    30  27  86 S8        29.56F WCI  23
HALLOCK        CLOUDY    27  25  93 S14       29.57R WCI  15
THF RVR FALLS  CLOUDY    27  25  93 S9        29.58F WCI  17
BAUDETTE       CLOUDY    32  27  81 SW8       29.57F WCI  25
WASKISH        CLOUDY    30  30 100 CALM      29.57F
CROOKSTON      CLOUDY    27  25  93 S16       29.60F WCI  14
STEPHEN NDAWN    N/A     27  25  93 S13         N/A  WCI  16
GREENBUSH NDAW   N/A     27  27 100 S12         N/A  WCI  16
$$
  *****  WEATHER ACROSS CENTRAL AND WEST MINNESOTA  *****

CITY           SKY/WX    TMP DP  RH WIND       PRES   REMARKS
FOSSTON        CLOUDY    27  25  93 S12       29.59F WCI  16
BEMIDJI        CLOUDY    31  28  87 SW5       29.58F
PARK RAPIDS    CLOUDY    32  27  81 W5        29.59F
ELBOW LAKE     CLOUDY    27  26  96 SW8       29.64F WCI  18
WADENA         LGT SNOW  28  28 100 W6        29.61F WCI  22
DETROIT LAKES  CLOUDY    28  28 100 SW9       29.61F WCI  20
MOORHEAD       CLOUDY    27  27 100 S9        29.62F WCI  17
FERGUS FALLS   CLOUDY    27  25  93 SW8       29.67F WCI  18
MORRIS MN      PTSUNNY   28  27  93 W7        29.65F WCI  21
STAPLES        CLOUDY    30  30 100 W7        29.62S WCI  23
$$
  *****  WEATHER ELSEWHERE ACROSS MINNESOTA  *****

CITY           SKY/WX    TMP DP  RH WIND       PRES   REMARKS
DULUTH         LGT SNOW  33  30  88 NW6       29.58S FOG
INTRNTL FALLS  CLOUDY    33  31  92 SW3       29.57F FOG
ELY            CLOUDY    32  28  86 W3        29.58S
CLOQUET        CLOUDY    34  30  86 NW6       29.60R
WHEATON        CLOUDY    25  25 100 S6        29.67F WCI  18
BRAINERD       CLOUDY    33  30  88 W5        29.62F
HIBBING        CLOUDY    34  30  85 CALM      29.58F
ALEXANDRIA     CLOUDY    30  26  85 W8        29.63F WCI  22
SAINT CLOUD    CLOUDY    36  30  79 NW7       29.63F
MINNEAPOLIS    CLOUDY    36  30  79 NW8       29.64S
$$

  *****  WEATHER ACROSS SOUTH DAKOTA  *****

CITY           SKY/WX    TMP DP  RH WIND       PRES   REMARKS
SIOUX FALLS    CLOUDY    26  24  92 W7        29.70F FOG     WCI  18
BROOKINGS      NOT AVBL
WATERTOWN      FOG       25  24  96 SW10      29.62F VSB 1   WCI  15
HURON          CLOUDY    28  24  85 S12       29.67F WCI  18
SISSETON       NOT AVBL
ABERDEEN       CLOUDY    29  25  85 S12       29.63F WCI  19
MITCHELL       PTSUNNY   30  26  85 SW9       29.70F WCI  22
PIERRE         CLOUDY    28  21  75 S12       29.57F WCI  18
MOBRIDGE       PTSUNNY   29  24  82 E5        29.52F WCI  24
RAPID CITY     CLOUDY    36  27  69 SE5       29.52F
$$

  *****  SOME WEATHER IN NEARBY STATES *****

CITY           SKY/WX    TMP DP  RH WIND       PRES   REMARKS
GLASGOW MT     CLOUDY    37  30  75 NW8       29.50S
GREAT FALLS MT SNOW      32  31  96 N3        29.49F VSB 1/2
CHEYENNE WY    PTSUNNY   39  17  41 NW15G29   29.64F
SCOTTSBLUFF NE MOSUNNY   42  25  50 W17G26    29.62F
OMAHA NE       CLOUDY    30  26  85 W8        29.79S WCI  22
DES MOINES IA  CLOUDY    35  31  85 NW16      29.71F
DAVENPORT IA   CLOUDY    36  31  82 NW13      29.58S
CHICAGO IL     CLOUDY    39  33  79 W12       29.48R
EAU CLAIRE WI  CLOUDY    36  30  79 NW9       29.58F
LA CROSSE WI   CLOUDY    37  31  78 NW9       29.58S
$$

  *****  SOME NATIONAL WEATHER *****

CITY           SKY/WX    TMP DP  RH WIND       PRES   REMARKS
LA GUARDIA NY  FOG       45  43  93 NE12      29.71F VSB 1/2
RALEIGH NC     CLOUDY    65  61  87 S13       29.70S
ATLANTA GA     CLOUDY    62  57  83 SW10G18   29.66S
NEW ORLEANS LA CLOUDY    54  35  48 W17G24    29.93R
OKLAHOMA CITY  MOSUNNY   49  28  44 NW14      29.93F
ALBUQUERQUE NM MOSUNNY   38   9  30 CALM      30.07F
SALT LAKE CITY CLOUDY    41  18  39 S12       29.81F
LOS ANGELES CA PTSUNNY   71  46  40 SW5       29.97F
BOISE ID       CLOUDY    33  29  85 W6        29.61F
SEATTLE WA     CLOUDY    43  38  82 S5        29.91S
$$

*** WEATHER ACROSS MANITOBA...SASKATCHEWAN AND ONTARIO ***
                ***ONTARIO***

CITY           SKY/WX    TMP DP  RH WIND       PRES   REMARKS
GERALDTON      HAIL      27  25  93 N7        29.55F WCI  19
THUNDER BAY    CLOUDY    34  30  86 N5        29.57F
SIOUX LOOKOUT  NOT AVBL
TORONTO        DRIZZLE   48  46  93 E10       29.39F
BIG TROUT LK   FLURRIES  23  23 100 E3        29.66F
PICKLE LAKE    FLURRIES  27  25  93 E5        29.60F WCI  21
DRYDEN         CLOUDY    30  30 100 SE2       29.55F
KENORA         NOT AVBL
$$
                *** MANITOBA***

CITY           SKY/WX    TMP DP  RH WIND       PRES   REMARKS
BRANDON        CLOUDY    30  27  86 SW10      29.39F WCI  21
DAUPHIN        CLOUDY    27  23  86 SE8       29.38F WCI  18
ISLAND LAKE    FLURRIES  25  23  93 E5        29.56F WCI  19
PILOT MOUND    NOT AVBL
THE PAS        LGT SNOW  23  21  93 E8        29.46S VSB 1   WCI  14
THOMPSON       FLURRIES  21  19  93 E3        29.57F
WINNIPEG       NOT AVBL
LYNN LAKE      FLURRIES  21  19  93 CALM      29.51S
CHURCHILL      CLOUDY    18  16  93 SE10      29.68F WCI   6
GILLAM         FLURRIES  19  18  93 E3        29.64F
$$
                ***SASKATCHEWAN***

CITY           SKY/WX    TMP DP  RH WIND       PRES   REMARKS
ESTEVAN        PTSUNNY   32  25  74 NW15      29.43F WCI  22
KINDERSLEY     NOT AVBL
LLOYDMINSTER   CLOUDY    25  23  93 NW15G22   29.49R WCI  12
PRINCE ALBERT  CLOUDY    25  23  93 NW7       29.43S WCI  17
REGINA         PTSUNNY   28  23  80 W12       29.44F WCI  18
YORKTON          N/A     27  25  93 NW15      29.37S WCI  15
N. BATTLEFORD  CLOUDY    25  25 100 NW13      29.48S WCI  13
LA RONGE       FLURRIES  21  21 100 NE2       29.47S
SASKATOON      LGT SNOW  27  25  93 W6        29.46S WCI  20
SWIFT CURRENT  PTSUNNY   30  25  80 W10       29.48S WCI  21
$$
NOTE: THESE ARE AUTOMATED STATIONS WITH LIMITED QUALITY CONTROL
      "FAIR" INDICATES FEW OR NO CLOUDS BELOW 12,000 FEET WITH NO
      SIGNIFICANT WEATHER AND/OR OBSTRUCTIONS TO VISIBILITY.
      SKY/WX - SKY CONDITION AND SIGNIFICANT WEATHER.
      TMP - AIR TEMPERATURE.    DP   - DEWPOINT TEMPERATURE.
      RH  - RELATIVE HUMIDITY.  PRES - PRESSURE.
      HX  - HEAT INDEX.         WCI  - WIND CHILL INDEX.
$



USA.gov is the U.S. government's official web portal to all federal, state and local government web resources and services.